Regional Weather Roundup
Issued by NWS Albany, NY

Home | Current Version | Previous Version | Text Only | Print | Product List | Glossary On
Versions: 1 2 3 4 5 6 7 8 9 10 11 12 13 14 15 16 17 18 19 20 21 22 23 24 25 26 27
000
ASUS41 KALY 250810
RWRALY

NEW YORK STATE HOURLY WEATHER ROUNDUP
NATIONAL WEATHER SERVICE ALBANY NY
400 AM EDT MON JUL 25 2016

NOTE: "FAIR" INDICATES FEW OR NO CLOUDS BELOW 12,000 FEET WITH NO
SIGNIFICANT WEATHER AND/OR NO OBSTRUCTIONS TO VISIBILITY.

NYZ032-033-038>043-046>054-057>066-NYZ062>081-082-084-250900-
EAST


CITY           SKY/WX    TMP DP  RH WIND       PRES   REMARKS
ALBANY         CLOUDY    68  64  87 CALM      29.93F
GLENS FALLS    CLOUDY    65  62  90 CALM      29.93F
POUGHKEEPSIE   CLEAR     70  65  84 N3        29.92F
NEWBURGH       CLEAR     72  68  88 CALM      29.95F
MONTGOMERY     MOCLDY    67  64  90 CALM      29.94S
WHITE PLAINS   CLOUDY    73  68  84 CALM      29.94F
ISLIP          CLOUDY    76  72  87 SW6       29.95S
NEW YORK CITY  CLOUDY    83  64  52 S7        29.93S
CENTRAL PARK   CLOUDY    81  64  56 SW3       29.97S
$$

NYZ005>009-017-018-044>046-055-056-250900-
CENTRAL


CITY           SKY/WX    TMP DP  RH WIND       PRES   REMARKS
FULTON         CLEAR     70  63  78 CALM      29.90S
SYRACUSE       PTCLDY    66  62  87 E6        29.88F
ROME           CLEAR     66  63  90 CALM      29.92F
ELMIRA         CLOUDY    65  59  81 CALM      29.94F
BINGHAMTON     CLEAR     67  60  78 CALM      29.97S
MONTICELLO     CLOUDY    70  61  73 CALM      30.00S
$$

NYZ026>034-041>043-087-250900-
NORTH


CITY           SKY/WX    TMP DP  RH WIND       PRES   REMARKS
WATERTOWN      CLOUDY    64  55  72 CALM      29.87F
FORT DRUM      NOT AVBL
MASSENA        PTCLDY    60  57  89 CALM      29.90S
SARANAC LAKE   CLEAR     55  53  93 CALM      29.95F
PLATTSBURGH    CLOUDY    61  59  93 CALM      29.91F
$$

NYZ001>004-010>016-019>021-085-250900-
WEST


CITY           SKY/WX    TMP DP  RH WIND       PRES   REMARKS
NIAGARA FALLS  MOCLDY    76  68  76 S7        29.88S
BUFFALO        PTCLDY    74  66  76 S8        29.90R
DUNKIRK        PTCLDY    76  68  76 S14       29.91R
JAMESTOWN      CLEAR     68  64  88 S7        29.99S
WELLSVILLE     PTCLDY    71  66  84 SW9       30.02F
ROCHESTER      MOCLDY    71  64  78 SW6       29.90S
PENN YAN       CLEAR     71  63  75 S7        29.93F
$$

             KEY
       WCI = WIND CHILL INDEX
       VSB = VISIBILITY
       HX  = HEAT INDEX
$$




USA.gov is the U.S. government's official web portal to all federal, state and local government web resources and services.